{"data":{"norad_id":60305,"epoch":"2026-09-21T17:22:18.977664Z","epoch_age_seconds":79856,"freshness":"FRESH","line1":"1 60305U 24133E   26264.72383076 -.00001128  00000+0 -44477-5 0  9997","line2":"2 60305  53.1617 259.8328 0001375  84.2095 275.9079 15.69709764124527","mean_motion":15.69709764,"eccentricity":0.0001375,"inclination_deg":53.1617,"raan_deg":259.8328,"arg_perigee_deg":84.2095,"mean_anomaly_deg":275.9079,"bstar":-4.4477e-6,"rev_number":12452,"period_min":91.736704008933,"perigee_km":358.80096940299,"apogee_km":360.65388212007,"semimajor_km":6737.8644257615,"source":"CELESTRAK","updated_at":"2026-09-22T09:00:49.197261Z"}}